User: anonymous   Login
Location: Ernsee
(50.8780°N, 12.0389°E)
Time: 18:12:48
(UTC+00:00)
Language:

Cosmos 1328 - Orbit

View from above orbital plane
View from above orbital plane
View from above satellite
View from above satellite

Ground track
Ground track

The orbit data is extracted from the following two-line orbital elements,

1 12987U 81117A   20099.71453954 -.00000092 +00000-0 -78990-5 0  9994
2 12987 082.5177 321.3532 0004575 330.5618 029.5352 15.08066032086905
Epoch (UTC): 08 April 2020 17:08:56
Eccentricity: 0.0004575
inclination: 82.5177°
perigee height: 539 km
apogee height: 545 km
right ascension of ascending node: 321.3532°
argument of perigee: 330.5618°
revolutions per day: 15.08066032
mean anomaly at epoch: 29.5352°
orbit number at epoch: 8690

The dashed part of the orbit path shows where the satellite is in the earth's shadow,  

DLR